C/2019 K4 ( Ye )

Japanese version
Home page
Updated on July 1, 2019

---------------------------------------------------------------------

* Profile

Discovery Date May 30, 2019
Magnitude 17.1 mag
Discoverer Quan-zhi Ye (Palomar)

* Orbital Elements

Epoch 2019 June 6.0 TT = JDT 2458640.5                                          
T 2019 June 16.50895 TT                                 MPCW                    
q   2.2571055            (2000.0)            P               Q                  
z  +0.0016349      Peri.  139.80153     +0.76344071     +0.64587451             
 +/-0.000335       Node   180.12459     -0.08967685     +0.10921509             
e   0.9963098      Incl.  105.31620     +0.63962203     -0.75559128             
From 97 observations 2019 Apr. 24-June 24, mean residual 0".5.                  

* Finding Charts

* Magnitudes Graph

        m1 = 12.0 + 5 log d + 10.0 log r

---------------------------------------------------------------------

The orbital elements are published on M.P.E.C. 2019-M70.
The charts are made with StellaNavigator Ver.10 (AstroArts).
The magnitudes graphs are made with Comet for Windows.

---------------------------------------------------------------------

Copyright(C) Seiichi Yoshida (comet@aerith.net). All rights reserved.